Time,TemperatureF,DewpointF,PressureIn,WindDirection,WindDirectionDegrees,WindSpeedMPH,WindSpeedGustMPH,Humidity,HourlyPrecipIn,Conditions,Clouds,dailyrainin,SoftwareType,DateUTC
2013-10-07 00:02:00,60.4,33.4,30.04,NW,319,0.0,0.0,36,0.00,,,0.00,meteohub,2013-10-07 07:02:00,
2013-10-07 00:22:00,59.7,33.4,30.04,NW,319,0.0,0.0,37,0.00,,,0.00,meteohub,2013-10-07 07:22:00,
2013-10-07 00:42:00,58.8,33.3,30.04,NW,319,0.0,0.0,38,0.00,,,0.00,meteohub,2013-10-07 07:42:00,
2013-10-07 01:02:00,57.9,32.5,30.04,NW,319,0.0,0.0,38,0.00,,,0.00,meteohub,2013-10-07 08:02:00,
2013-10-07 01:22:00,57.7,32.9,30.01,NW,319,0.0,0.0,39,0.00,,,0.00,meteohub,2013-10-07 08:22:00,
2013-10-07 01:42:00,57.7,33.6,30.04,NW,319,0.0,0.0,40,0.00,,,0.00,meteohub,2013-10-07 08:42:00,
2013-10-07 02:02:00,56.7,32.5,30.04,NW,319,0.0,0.0,40,0.00,,,0.00,meteohub,2013-10-07 09:02:00,
2013-10-07 02:22:00,56.7,32.5,30.01,NW,319,0.0,0.0,40,0.00,,,0.00,meteohub,2013-10-07 09:22:00,
2013-10-07 02:42:00,56.7,32.0,30.01,NW,319,0.0,0.0,39,0.00,,,0.00,meteohub,2013-10-07 09:42:00,
2013-10-07 03:02:00,56.7,32.0,30.01,NW,319,0.0,0.0,39,0.00,,,0.00,meteohub,2013-10-07 10:02:00,
2013-10-07 03:22:00,56.5,31.8,30.01,NW,319,0.0,0.0,39,0.00,,,0.00,meteohub,2013-10-07 10:22:00,
2013-10-07 03:42:00,56.5,31.8,29.99,NW,319,0.0,0.0,39,0.00,,,0.00,meteohub,2013-10-07 10:42:00,
2013-10-07 04:02:00,56.5,31.8,30.01,NW,319,0.0,0.0,39,0.00,,,0.00,meteohub,2013-10-07 11:02:00,
2013-10-07 04:22:00,56.8,32.2,30.01,NW,319,0.0,0.0,39,0.00,,,0.00,meteohub,2013-10-07 11:22:00,
2013-10-07 04:42:00,56.5,31.8,29.99,NW,319,0.0,0.0,39,0.00,,,0.00,meteohub,2013-10-07 11:42:00,
2013-10-07 05:02:00,56.5,31.1,29.99,NW,319,0.0,0.0,38,0.00,,,0.00,meteohub,2013-10-07 12:02:00,
2013-10-07 05:22:00,56.7,31.3,30.01,NW,319,0.0,0.0,38,0.00,,,0.00,meteohub,2013-10-07 12:22:00,
2013-10-07 05:42:00,56.5,31.1,30.01,NW,319,0.0,0.0,38,0.00,,,0.00,meteohub,2013-10-07 12:42:00,
2013-10-07 06:02:00,55.9,30.7,30.01,NW,319,0.0,0.0,38,0.00,,,0.00,meteohub,2013-10-07 13:02:00,
2013-10-07 06:22:00,55.4,30.2,30.01,NW,319,0.0,0.0,38,0.00,,,0.00,meteohub,2013-10-07 13:22:00,
2013-10-07 06:42:00,55.0,29.3,30.01,NW,319,0.0,0.0,37,0.00,,,0.00,meteohub,2013-10-07 13:42:00,
2013-10-07 07:02:00,55.0,29.3,30.01,NW,319,0.0,0.0,37,0.00,,,0.00,meteohub,2013-10-07 14:02:00,
2013-10-07 07:22:00,54.7,28.9,30.01,NW,319,0.0,0.0,37,0.00,,,0.00,meteohub,2013-10-07 14:22:00,
2013-10-07 07:42:00,56.3,30.4,30.01,NW,319,0.0,0.0,37,0.00,,,0.00,meteohub,2013-10-07 14:42:00,
2013-10-07 08:02:00,58.5,31.6,30.01,NW,319,0.0,0.0,36,0.00,,,0.00,meteohub,2013-10-07 15:02:00,
2013-10-07 08:22:00,61.3,33.4,30.04,NW,319,0.0,0.0,35,0.00,,,0.00,meteohub,2013-10-07 15:22:00,
2013-10-07 08:42:00,63.9,34.9,30.04,East,95,0.0,3.0,34,0.00,,,0.00,meteohub,2013-10-07 15:42:00,
2013-10-07 09:02:00,66.2,37.0,30.04,SE,127,0.0,3.0,34,0.00,,,0.00,meteohub,2013-10-07 16:02:00,
2013-10-07 09:22:00,68.2,37.9,30.04,SSW,213,0.0,4.0,33,0.00,,,0.00,meteohub,2013-10-07 16:22:00,
2013-10-07 09:42:00,68.7,38.5,30.04,SW,218,4.0,6.0,33,0.00,,,0.00,meteohub,2013-10-07 16:42:00,
2013-10-07 10:02:00,68.9,39.4,30.04,SSW,207,0.0,6.0,34,0.00,,,0.00,meteohub,2013-10-07 17:02:00,
2013-10-07 10:22:00,69.3,41.2,30.04,SSW,199,3.0,6.0,36,0.00,,,0.00,meteohub,2013-10-07 17:22:00,
2013-10-07 10:42:00,70.0,41.0,30.04,SW,224,3.0,6.0,35,0.00,,,0.00,meteohub,2013-10-07 17:42:00,
2013-10-07 11:02:00,71.2,43.0,30.04,South,172,5.0,5.0,36,0.00,,,0.00,meteohub,2013-10-07 18:02:00,
2013-10-07 11:22:00,72.7,41.9,30.04,SSW,203,3.0,9.0,33,0.00,,,0.00,meteohub,2013-10-07 18:22:00,
2013-10-07 11:42:00,73.0,41.4,30.04,SW,218,4.0,6.0,32,0.00,,,0.00,meteohub,2013-10-07 18:42:00,
2013-10-07 12:02:00,73.2,41.5,30.04,SW,226,4.0,8.0,32,0.00,,,0.00,meteohub,2013-10-07 19:02:00,
2013-10-07 12:22:00,74.1,42.4,30.04,West,272,6.0,8.0,32,0.00,,,0.00,meteohub,2013-10-07 19:22:00,
2013-10-07 12:42:00,73.8,42.1,30.04,West,262,6.0,8.0,32,0.00,,,0.00,meteohub,2013-10-07 19:42:00,
2013-10-07 13:02:00,74.1,42.4,30.04,WSW,250,8.0,8.0,32,0.00,,,0.00,meteohub,2013-10-07 20:02:00,
2013-10-07 13:22:00,74.3,42.6,30.04,SSW,212,4.0,9.0,32,0.00,,,0.00,meteohub,2013-10-07 20:22:00,
2013-10-07 13:42:00,72.9,42.1,30.04,SW,221,8.0,11.0,33,0.00,,,0.00,meteohub,2013-10-07 20:42:00,
2013-10-07 14:02:00,74.5,42.6,30.04,West,264,5.0,11.0,32,0.00,,,0.00,meteohub,2013-10-07 21:02:00,
2013-10-07 14:22:00,74.5,42.6,30.01,WSW,253,6.0,11.0,32,0.00,,,0.00,meteohub,2013-10-07 21:22:00,
2013-10-07 14:42:00,73.8,42.1,30.01,SW,222,10.0,10.0,32,0.00,,,0.00,meteohub,2013-10-07 21:42:00,
2013-10-07 15:02:00,73.2,41.5,30.01,SSW,205,6.0,10.0,32,0.00,,,0.00,meteohub,2013-10-07 22:02:00,
2013-10-07 15:22:00,73.0,42.3,30.01,WSW,258,8.0,11.0,33,0.00,,,0.00,meteohub,2013-10-07 22:22:00,
2013-10-07 15:42:00,73.4,41.7,30.01,West,260,8.0,9.0,32,0.00,,,0.00,meteohub,2013-10-07 22:42:00,
2013-10-07 16:02:00,72.7,41.9,30.01,WSW,254,9.0,11.0,33,0.00,,,0.00,meteohub,2013-10-07 23:02:00,
2013-10-07 16:22:00,72.9,42.1,30.01,WSW,248,3.0,13.0,33,0.00,,,0.00,meteohub,2013-10-07 23:22:00,
2013-10-07 16:42:00,72.5,41.0,30.01,WSW,249,0.0,9.0,32,0.00,,,0.00,meteohub,2013-10-07 23:42:00,
2013-10-07 17:02:00,72.5,41.0,30.01,West,281,0.0,0.0,32,0.00,,,0.00,meteohub,2013-10-08 00:02:00,
2013-10-07 17:22:00,71.6,41.0,30.01,West,261,9.0,0.0,33,0.00,,,0.00,meteohub,2013-10-08 00:22:00,
2013-10-07 17:42:00,70.0,40.3,30.01,West,274,4.0,11.0,34,0.00,,,0.00,meteohub,2013-10-08 00:42:00,
2013-10-07 18:02:00,68.2,40.3,30.01,WNW,302,10.0,13.0,36,0.00,,,0.00,meteohub,2013-10-08 01:02:00,
2013-10-07 18:22:00,66.7,40.3,30.01,West,265,9.0,11.0,38,0.00,,,0.00,meteohub,2013-10-08 01:22:00,
2013-10-07 18:42:00,66.2,41.7,30.01,WNW,286,8.0,11.0,41,0.00,,,0.00,meteohub,2013-10-08 01:42:00,
2013-10-07 19:02:00,65.8,42.8,30.01,WSW,247,8.0,9.0,43,0.00,,,0.00,meteohub,2013-10-08 02:02:00,
2013-10-07 19:22:00,65.7,43.2,30.01,West,276,0.0,8.0,44,0.00,,,0.00,meteohub,2013-10-08 02:22:00,
2013-10-07 19:42:00,65.3,43.3,30.01,West,274,4.0,8.0,45,0.00,,,0.00,meteohub,2013-10-08 02:42:00,
2013-10-07 20:02:00,64.6,42.8,30.01,West,276,0.0,4.0,45,0.00,,,0.00,meteohub,2013-10-08 03:02:00,
2013-10-07 20:22:00,63.9,42.1,30.01,West,276,0.0,0.0,45,0.00,,,0.00,meteohub,2013-10-08 03:22:00,
2013-10-07 20:42:00,63.1,41.5,30.01,West,276,0.0,0.0,45,0.00,,,0.00,meteohub,2013-10-08 03:42:00,
2013-10-07 21:02:00,63.0,41.9,30.01,West,276,0.0,0.0,46,0.00,,,0.00,meteohub,2013-10-08 04:02:00,
2013-10-07 21:22:00,62.6,41.5,30.01,West,276,0.0,0.0,46,0.00,,,0.00,meteohub,2013-10-08 04:22:00,
2013-10-07 21:42:00,61.5,40.5,30.04,West,276,0.0,0.0,46,0.00,,,0.00,meteohub,2013-10-08 04:42:00,
2013-10-07 22:02:00,60.4,40.1,30.01,West,276,0.0,0.0,47,0.00,,,0.00,meteohub,2013-10-08 05:02:00,
2013-10-07 22:22:00,59.9,39.6,30.01,West,276,0.0,0.0,47,0.00,,,0.00,meteohub,2013-10-08 05:22:00,
2013-10-07 22:42:00,60.4,41.2,30.01,West,277,0.0,0.0,49,0.00,,,0.00,meteohub,2013-10-08 05:42:00,
2013-10-07 23:02:00,59.5,40.3,30.01,West,276,0.0,0.0,49,0.00,,,0.00,meteohub,2013-10-08 06:02:00,
2013-10-07 23:22:00,59.7,41.0,30.01,West,277,0.0,0.0,50,0.00,,,0.00,meteohub,2013-10-08 06:22:00,
2013-10-07 23:42:00,59.7,41.5,30.01,West,276,0.0,0.0,51,0.00,,,0.00,meteohub,2013-10-08 06:42:00,